Weather History for KHAI - September, 2013

Change the Weather History Date:

Wednesday, September 4, 2013

  Actual Average Record
Temperature  
Mean Temperature 66 °F -  
Max Temperature 81 °F 79 °F 92 °F (1960)
Min Temperature 52 °F 55 °F 39 °F (1974)
Cooling Degree Days 2    
Growing Degree Days 16 (Base 50)    
Moisture  
Dew Point 55 °F    
Average Humidity 72    
Maximum Humidity 97    
Minimum Humidity 37    
Precipitation  
Precipitation 0.00 in - - ()
Sea Level Pressure  
Sea Level Pressure 30.10 in    
Wind  
Wind Speed 4 mph (WSW)    
Max Wind Speed 14 mph    
Max Gust Speed 21 mph    
Visibility 8 miles    
Events      
Averages and records for this station are not official NWS values.
T = Trace of Precipitation, MM = Missing Value Source: NWS Daily Summary

Daily Weather History Graph

Daily Weather History Graph

Search for Another Location

Airport or City:

Trip Planner

Search our weather history database for the weather conditions in past years. The results will help you decide how hot, cold, wet, or windy it might be!

Date:

Astronomy

Sep. 04, 2013 Rise Set
Actual Time 7:11 AM EDT 8:10 PM EDT
Civil Twilight 6:42 AM EDT 8:38 PM EDT
Nautical Twilight 6:08 AM EDT 9:12 PM EDT
Astronomical Twilight 5:33 AM EDT 9:48 PM EDT
Moon 6:22 AM EDT (9/4) 7:29 PM EDT (9/4)
Length of Visible Light 13h 56m
Length of Day
12h 59m
Waning Crescent, 1% of the Moon is Illuminated
Sep 4
Waning Crescent
Sep 5
New
Sep 12
First Quarter
Sep 19
Full
Sep 26
Last Quarter

Hourly Weather History & Observations

Time (EDT) Temp. Heat Index Dew Point Humidity Pressure Visibility Wind Dir Wind Speed Gust Speed Precip Events Conditions
12:14 AM 55.6 °F - 53.2 °F 92% 30.06 in 10.0 mi Calm Calm - N/A   Clear
12:35 AM 55.0 °F - 53.1 °F 93% 30.06 in 10.0 mi Calm Calm - N/A   Clear
12:55 AM 54.7 °F - 52.7 °F 93% 30.06 in 7.0 mi Calm Calm - N/A   Clear
1:14 AM 55.0 °F - 53.2 °F 94% 30.06 in 2.5 mi South 3.5 mph - N/A   Clear
1:35 AM 54.9 °F - 53.2 °F 94% 30.06 in 7.0 mi SSW 4.6 mph - N/A   Clear
1:55 AM 55.4 °F - 53.8 °F 94% 30.07 in 5.0 mi Calm Calm - N/A   Clear
2:14 AM 55.2 °F - 53.8 °F 95% 30.07 in 7.0 mi Calm Calm - N/A   Clear
2:35 AM 54.5 °F - 53.1 °F 95% 30.07 in 10.0 mi Calm Calm - N/A   Clear
2:54 AM 54.1 °F - 52.9 °F 95% 30.07 in 1.2 mi Calm Calm - N/A   Mist
3:14 AM 54.1 °F - 52.9 °F 95% 30.08 in 4.0 mi Calm Calm - N/A   Clear
3:35 AM 53.4 °F - 52.3 °F 96% 30.08 in 7.0 mi Calm Calm - N/A   Clear
3:54 AM 55.4 °F - 54.1 °F 96% 30.08 in 7.0 mi Calm Calm - N/A   Clear
4:15 AM 53.8 °F - 52.7 °F 96% 30.09 in 0.8 mi Calm Calm - N/A   Mist
4:34 AM 53.1 °F - 52.2 °F 97% 30.08 in 3.0 mi South 4.6 mph - N/A   Clear
4:54 AM 53.2 °F - 52.3 °F 97% 30.09 in 4.0 mi Calm Calm - N/A   Clear
5:15 AM 52.7 °F - 51.8 °F 97% 30.09 in 4.0 mi Calm Calm - N/A   Clear
5:34 AM 53.8 °F - 53.1 °F 97% 30.09 in 1.0 mi SSW 3.5 mph - N/A   Mist
5:54 AM 53.1 °F - 52.3 °F 97% 30.10 in 5.0 mi South 4.6 mph - N/A   Clear
6:14 AM 52.7 °F - 52.0 °F 97% 30.10 in 5.0 mi SSW 4.6 mph - N/A   Clear
6:34 AM 53.4 °F - 52.7 °F 97% 30.10 in 4.0 mi SSW 3.5 mph - N/A   Clear
6:55 AM 52.0 °F - 51.1 °F 97% 30.10 in 5.0 mi NNW 4.6 mph - N/A   Clear
7:14 AM 52.9 °F - 52.2 °F 97% 30.11 in 5.0 mi SSW 3.5 mph - N/A   Clear
7:34 AM 52.7 °F - 51.8 °F 97% 30.10 in 4.0 mi SSW 4.6 mph - N/A   Clear
7:55 AM 54.1 °F - 53.4 °F 97% 30.11 in 5.0 mi SSW 5.8 mph - N/A   Clear
8:14 AM 56.3 °F - 55.6 °F 97% 30.12 in 7.0 mi SSW 4.6 mph - N/A   Clear
8:35 AM 59.0 °F - 57.9 °F 96% 30.12 in 10.0 mi SW 3.5 mph - N/A   Clear
8:55 AM 61.5 °F - 58.6 °F 90% 30.12 in 10.0 mi SW 4.6 mph - N/A   Clear
9:14 AM 63.5 °F - 58.6 °F 84% 30.12 in 10.0 mi SW 3.5 mph - N/A   Clear
9:35 AM 65.7 °F - 59.0 °F 79% 30.12 in 10.0 mi SW 3.5 mph - N/A   Clear
9:55 AM 69.1 °F - 60.6 °F 74% 30.12 in 10.0 mi West 6.9 mph - N/A   Clear
10:14 AM 70.3 °F - 60.8 °F 72% 30.11 in 10.0 mi WSW 6.9 mph - N/A   Clear
10:35 AM 72.5 °F - 60.4 °F 66% 30.11 in 10.0 mi West 8.1 mph - N/A   Clear
10:54 AM 72.5 °F - 59.5 °F 64% 30.11 in 10.0 mi West 11.5 mph - N/A   Clear
11:14 AM 73.9 °F - 59.0 °F 59% 30.11 in 10.0 mi West 10.4 mph 17.3 mph N/A   Clear
11:35 AM 75.2 °F - 58.5 °F 56% 30.11 in 10.0 mi West 8.1 mph 16.1 mph N/A   Clear
11:54 AM 75.6 °F - 58.1 °F 55% 30.12 in 10.0 mi West 10.4 mph 17.3 mph N/A   Clear
12:14 PM 76.5 °F - 58.1 °F 53% 30.12 in 10.0 mi WNW 10.4 mph 18.4 mph N/A   Clear
12:35 PM 76.8 °F - 57.9 °F 52% 30.12 in 10.0 mi West 11.5 mph - N/A   Clear
12:54 PM 78.6 °F - 58.3 °F 50% 30.12 in 10.0 mi West 10.4 mph 17.3 mph N/A   Clear
1:14 PM 78.4 °F - 58.6 °F 50% 30.11 in 10.0 mi WSW 6.9 mph - N/A   Clear
1:34 PM 79.7 °F - 56.5 °F 45% 30.11 in 10.0 mi West 9.2 mph - N/A   Clear
1:54 PM 80.2 °F 80.4 °F 55.8 °F 43% 30.10 in 10.0 mi West 11.5 mph - N/A   Clear
2:15 PM 80.6 °F 80.4 °F 54.1 °F 40% 30.11 in 10.0 mi WNW 12.7 mph 20.7 mph N/A   Clear
2:34 PM 80.8 °F - 52.7 °F 38% 30.11 in 10.0 mi WNW 13.8 mph 18.4 mph N/A   Clear
2:54 PM 80.8 °F 80.4 °F 53.8 °F 39% 30.11 in 10.0 mi WNW 9.2 mph 18.4 mph N/A   Clear
3:15 PM 81.3 °F 80.8 °F 54.1 °F 39% 30.11 in 10.0 mi WNW 10.4 mph - N/A   Clear
3:34 PM 81.0 °F 80.4 °F 53.1 °F 38% 30.11 in 10.0 mi West 10.4 mph - N/A   Clear
3:55 PM 79.9 °F - 54.0 °F 41% 30.10 in 10.0 mi West 11.5 mph 19.6 mph N/A   Clear
4:15 PM 80.8 °F 80.5 °F 54.1 °F 40% 30.10 in 10.0 mi West 8.1 mph - N/A   Clear
4:34 PM 80.4 °F 80.2 °F 53.8 °F 40% 30.09 in 10.0 mi WNW 9.2 mph - N/A   Clear
4:55 PM 80.2 °F 80.1 °F 53.8 °F 40% 30.09 in 10.0 mi WNW 11.5 mph - N/A   Clear
5:14 PM 80.6 °F 80.4 °F 54.7 °F 41% 30.09 in 10.0 mi West 11.5 mph 17.3 mph N/A   Clear
5:34 PM 79.5 °F - 55.0 °F 43% 30.09 in 10.0 mi West 13.8 mph - N/A   Clear
5:55 PM 79.7 °F - 51.4 °F 37% 30.09 in 10.0 mi West 12.7 mph - N/A   Clear
6:14 PM 78.8 °F - 53.6 °F 42% 30.09 in 10.0 mi West 11.5 mph - N/A   Clear
6:34 PM 76.1 °F - 54.7 °F 47% 30.09 in 10.0 mi West 9.2 mph - N/A   Clear
6:54 PM 74.5 °F - 54.5 °F 50% 30.09 in 10.0 mi West 5.8 mph - N/A   Clear
7:14 PM 73.4 °F - 54.1 °F 51% 30.09 in 10.0 mi West 3.5 mph - N/A   Clear
7:35 PM 72.1 °F - 54.9 °F 54% 30.09 in 10.0 mi West 3.5 mph - N/A   Clear
7:54 PM 71.2 °F - 55.4 °F 57% 30.10 in 10.0 mi West 3.5 mph - N/A   Clear
8:14 PM 70.7 °F - 55.2 °F 58% 30.10 in 10.0 mi West 3.5 mph - N/A   Clear
8:35 PM 68.2 °F - 56.3 °F 66% 30.10 in 10.0 mi Calm Calm - N/A   Clear
8:54 PM 66.6 °F - 56.1 °F 69% 30.11 in 10.0 mi Calm Calm - N/A   Clear
9:14 PM 65.5 °F - 57.4 °F 75% 30.12 in 10.0 mi Calm Calm - N/A   Clear
9:35 PM 64.6 °F - 56.7 °F 75% 30.12 in 10.0 mi Calm Calm - N/A   Clear
9:54 PM 64.6 °F - 56.3 °F 74% 30.12 in 10.0 mi Calm Calm - N/A   Clear
10:15 PM 63.1 °F - 57.0 °F 80% 30.12 in 10.0 mi Calm Calm - N/A   Clear
10:34 PM 62.6 °F - 56.7 °F 81% 30.12 in 10.0 mi Calm Calm - N/A   Clear
10:54 PM 63.0 °F - 56.8 °F 80% 30.12 in 10.0 mi Calm Calm - N/A   Clear
11:15 PM 61.3 °F - 56.3 °F 83% 30.13 in 10.0 mi Calm Calm - N/A   Clear
11:34 PM 60.8 °F - 55.8 °F 83% 30.13 in 10.0 mi Calm Calm - N/A   Clear
11:54 PM 61.2 °F - 56.5 °F 85% 30.13 in 10.0 mi Calm Calm - N/A   Clear